Wind_Speed
23 23 23 23 21 21 21 20 20 20 20 19 18 18 19 20 21 21 21 20 20 20 20 20 20 21 21 22 21 21 20 20 20 20 20 20 20 20 19 19 20 19 19
23 22 22 22 21 21 21 21 20 20 20 19 19 19 19 20 20 20 20 21 21 21 21 21 22 22 22 22 22 21 21 21 21 21 21 21 20 20 20 20 20 20 19
22 21 21 21 22 22 21 21 21 21 20 20 20 20 20 21 21 21 22 21 21 22 22 21 21 22 22 22 22 22 21 21 21 21 21 20 19 19 20 20 20 20 20
21 21 21 21 21 21 22 22 22 22 22 22 21 20 20 21 21 22 22 23 22 21 21 21 21 21 21 22 21 21 21 21 21 21 21 20 20 20 21 21 21 21 20
21 21 21 21 20 21 22 21 21 20 20 21 21 21 21 21 21 22 22 22 21 21 20 21 20 22 22 22 22 21 22 22 22 22 21 22 22 22 21 21 22 22 21
21 21 21 21 21 21 22 21 21 21 21 21 20 20 20 20 20 21 22 22 22 21 21 22 21 22 23 23 23 23 23 23 23 23 23 23 23 23 22 22 22 22 22
21 21 22 21 21 22 21 21 22 22 22 22 22 21 21 21 21 22 22 22 23 23 23 23 23 24 24 24 25 25 25 24 25 24 24 24 24 24 23 23 22 22 23
22 22 22 21 21 20 21 21 21 22 22 22 22 21 21 22 21 21 22 22 23 23 24 24 24 24 24 24 25 25 25 25 25 25 25 25 25 24 24 24 24 24 23
22 22 22 21 21 21 21 21 21 21 22 22 22 22 22 22 22 22 22 21 22 23 23 23 24 24 25 25 25 25 25 25 25 26 26 26 25 24 25 25 25 25 24
22 21 21 21 22 22 22 22 22 22 22 22 22 22 22 22 22 22 22 22 22 22 23 24 25 25 26 26 26 26 25 26 26 26 26 26 26 25 25 25 25 25 25
22 22 21 21 21 22 22 22 22 22 22 22 22 22 22 22 23 23 23 23 23 23 23 24 24 25 26 27 27 27 26 26 27 27 26 26 26 26 26 25 24 25 25
21 21 21 21 22 22 22 22 22 22 22 22 22 22 22 22 22 23 24 25 25 25 25 25 25 25 25 25 26 27 27 27 27 27 27 26 26 25 25 25 25 25 24
21 21 21 22 22 22 22 23 23 23 22 22 22 23 23 24 24 24 25 25 26 26 25 25 25 25 25 25 25 26 26 27 27 27 26 26 26 25 25 25 24 24 23
23 22 23 23 23 23 23 23 24 23 23 23 23 24 25 25 25 26 26 25 25 25 25 24 24 24 24 24 24 25 25 25 26 25 25 25 25 26 25 25 24 23 23
24 24 24 25 25 24 24 24 24 24 25 25 25 26 26 26 26 26 25 25 25 25 25 25 25 25 25 24 24 24 24 24 24 25 25 25 25 25 24 23 23 22 22
25 25 25 24 24 24 25 25 25 25 26 26 26 26 26 26 26 26 27 26 27 26 26 26 26 26 26 26 25 25 25 25 25 25 25 25 25 24 24 24 23 23 24
24 25 25 25 25 25 26 26 26 26 26 26 26 26 26 26 27 27 27 27 28 28 28 27 27 27 27 27 27 26 26 26 26 26 26 25 25 25 25 25 24 24 25
24 25 25 25 25 26 26 26 26 27 26 26 27 27 27 27 27 28 28 28 28 29 29 29 29 29 29 28 28 28 28 27 26 26 25 25 25 25 25 25 26 26 26
24 24 25 25 25 26 27 27 27 27 27 27 27 28 28 28 28 28 28 28 28 28 29 29 29 29 28 28 28 28 28 28 27 27 27 26 26 26 26 26 26 26 26
22 22 23 24 25 26 26 27 27 27 27 27 28 28 28 28 28 28 28 28 28 28 28 29 29 28 28 27 28 28 28 28 28 27 27 27 26 26 26 26 26 27 26
22 22 22 23 23 24 25 25 26 26 26 27 27 27 27 26 26 27 27 28 27 27 27 28 28 27 27 27 27 28 28 29 29 28 28 28 28 28 28 28 28 28 28
22 22 22 22 23 23 24 24 24 24 25 26 26 25 25 25 25 25 26 26 26 26 27 27 27 26 26 26 28 28 28 29 29 30 30 30 30 30 30 30 29 28 28
21 21 21 22 22 22 22 22 22 23 23 24 24 23 24 24 24 25 26 26 26 27 27 27 27 27 26 27 27 28 28 29 30 30 30 31 31 31 31 30 29 28 28
20 21 21 21 22 22 21 21 21 22 22 23 23 23 23 24 25 25 25 26 26 26 27 27 27 28 28 28 28 29 29 29 30 31 31 31 31 31 30 30 30 29 28
20 21 21 21 21 21 21 21 21 21 22 22 23 23 23 24 24 25 25 25 26 26 27 27 27 27 28 28 29 29 29 29 30 30 30 30 29 29 29 29 29 29 28
20 21 21 21 21 22 22 22 21 21 21 22 23 23 24 24 24 23 23 23 24 24 25 25 26 26 27 27 27 27 28 28 28 29 28 29 29 29 29 29 28 28 28
Wind_Direction
276 274 272 271 273 276 276 276 276 276 275 271 268 264 263 261 260 261 262 263 263 261 257 257 258 258 257 257 259 263 267 272 275 276 277 278 279 280 280 279 279 279 280
274 272 270 271 273 274 275 274 273 273 270 267 266 265 264 263 263 263 264 264 263 263 261 259 260 258 258 257 259 263 268 272 275 278 279 279 279 280 280 279 278 278 279
274 273 272 272 272 273 274 274 271 269 268 267 267 267 267 267 264 261 263 264 263 264 263 262 261 257 256 256 259 263 268 271 274 278 280 281 281 280 279 279 278 280 280
273 272 272 273 273 273 274 273 271 269 268 266 266 266 267 266 263 262 263 263 263 262 262 262 260 259 258 259 260 264 267 271 274 276 278 280 280 280 280 278 280 280 280
273 273 272 274 275 273 273 270 269 270 269 268 268 266 266 266 264 262 262 261 260 259 260 262 263 260 260 260 262 265 267 270 273 275 278 279 280 281 280 279 279 278 278
273 274 274 273 273 272 271 270 270 269 267 269 269 269 268 266 263 262 263 261 259 261 262 262 263 264 263 262 264 266 268 270 272 275 277 279 280 280 279 280 281 279 278
275 274 274 273 273 272 271 269 270 269 269 270 270 267 266 265 265 263 262 261 261 262 264 264 264 265 266 266 265 266 268 270 272 275 277 278 278 278 278 280 280 278 278
276 276 273 271 271 271 271 271 269 268 269 269 268 267 264 264 265 264 263 262 261 262 264 266 267 267 267 267 267 267 268 270 272 273 276 277 278 277 276 278 279 279 278
274 274 270 268 268 269 270 272 271 269 266 267 268 266 265 264 264 265 264 263 263 264 265 265 266 266 266 266 267 266 268 270 272 273 274 277 277 276 277 277 278 279 279
272 272 270 268 266 266 268 268 269 269 268 267 265 265 265 264 265 265 264 264 266 267 267 267 267 266 265 265 266 267 268 270 272 273 274 275 276 276 277 278 278 278 278
272 271 270 269 267 267 267 268 268 268 268 267 266 266 265 265 264 265 265 266 267 268 269 269 269 267 266 266 266 267 269 270 271 272 273 274 275 276 277 278 279 279 278
272 271 270 269 269 268 268 269 268 269 267 266 266 266 266 267 267 266 266 266 268 269 270 271 269 267 267 266 266 268 269 270 271 272 273 274 274 275 275 277 278 278 276
272 272 271 270 269 268 269 269 269 269 269 269 268 269 269 269 269 269 270 268 267 268 269 269 268 268 267 268 269 268 268 268 270 272 273 273 273 274 274 275 275 274 272
273 273 273 273 270 270 269 269 269 270 271 272 272 272 271 270 270 270 271 270 268 266 266 267 268 268 268 267 267 268 268 268 269 271 271 271 272 273 274 272 272 270 269
273 275 275 274 271 269 270 271 272 271 272 273 273 273 272 270 270 270 270 270 269 267 268 268 267 267 266 266 266 266 266 269 270 270 270 271 271 272 272 273 271 268 266
272 276 275 275 273 272 272 272 273 273 273 274 274 274 273 272 270 270 270 269 270 270 270 268 268 267 266 266 266 265 266 267 269 270 270 270 271 271 272 272 271 270 268
275 276 276 275 274 275 275 273 273 274 274 273 272 272 272 272 271 269 268 268 269 269 269 268 267 267 267 266 265 265 266 267 268 269 269 269 270 271 271 271 270 270 270
276 276 277 277 276 276 276 274 274 274 274 272 272 271 272 272 271 270 268 268 268 269 269 268 268 266 267 267 264 263 264 265 266 266 267 269 269 270 271 271 270 270 270
277 276 276 278 278 277 276 275 275 274 273 272 272 273 273 272 270 270 269 269 269 269 270 269 268 267 267 267 263 261 262 263 264 266 267 268 268 269 269 270 270 270 270
279 278 278 278 278 279 278 277 276 275 273 273 273 273 273 272 271 271 270 270 271 271 270 269 268 267 266 266 263 262 262 262 264 267 267 267 268 269 269 268 268 268 269
283 281 280 280 281 282 282 280 277 275 274 274 274 274 273 273 272 272 271 271 271 270 269 268 267 266 266 265 264 264 263 263 264 265 266 266 267 268 270 270 269 268 269
284 284 282 281 282 282 283 282 280 278 276 276 275 274 274 273 273 273 272 272 272 271 271 269 268 266 267 267 266 266 265 264 265 266 266 267 267 267 268 269 269 267 268
284 285 286 285 284 284 284 284 282 280 279 278 277 275 274 275 276 275 274 275 275 274 273 272 270 270 269 268 267 266 266 267 267 268 268 267 267 267 268 268 269 267 267
285 285 285 286 287 286 285 284 283 282 281 280 279 278 277 277 278 278 277 277 277 275 274 272 272 271 270 270 268 266 265 265 265 266 268 268 268 267 266 266 267 266 265
285 287 287 287 288 287 286 286 285 284 284 283 281 280 280 281 281 279 279 278 276 276 276 274 272 270 270 269 268 266 265 265 266 266 267 267 266 264 264 264 264 264 264
285 286 287 289 288 288 287 287 285 284 286 286 283 280 279 280 281 282 281 278 276 276 277 275 273 271 270 270 268 266 265 264 265 266 266 265 263 261 262 261 261 261 260
Height
5804 5803 5803 5803 5803 5803 5803 5803 5803 5803 5803 5804 5804 5804 5805 5806 5807 5808 5809 5809 5810 5811 5812 5813 5815 5816 5817 5819 5820 5820 5821 5821 5822 5822 5823 5822 5822 5821 5821 5821 5820 5820 5820
5798 5798 5798 5798 5798 5798 5798 5798 5798 5798 5798 5799 5799 5800 5800 5801 5802 5803 5804 5804 5805 5806 5807 5808 5809 5811 5812 5813 5814 5815 5816 5816 5817 5817 5817 5817 5817 5816 5816 5815 5815 5815 5815
5792 5792 5792 5792 5792 5792 5792 5793 5793 5793 5793 5794 5794 5795 5795 5796 5796 5798 5798 5799 5800 5801 5802 5803 5804 5805 5806 5807 5808 5809 5810 5810 5811 5811 5811 5811 5811 5811 5810 5810 5810 5810 5809
5787 5787 5787 5787 5787 5787 5787 5787 5787 5787 5788 5788 5789 5789 5790 5790 5791 5792 5793 5793 5794 5795 5796 5797 5798 5799 5800 5802 5802 5803 5804 5804 5805 5805 5805 5805 5805 5805 5805 5804 5804 5804 5804
5781 5781 5781 5781 5781 5781 5781 5781 5782 5782 5782 5782 5783 5783 5784 5784 5785 5786 5787 5787 5788 5789 5791 5792 5792 5793 5794 5795 5796 5797 5798 5798 5799 5799 5799 5799 5799 5799 5799 5798 5798 5798 5798
5776 5775 5775 5775 5775 5775 5776 5776 5776 5776 5776 5777 5777 5778 5778 5779 5779 5780 5781 5781 5782 5784 5785 5785 5786 5787 5788 5789 5790 5791 5791 5792 5792 5792 5792 5793 5793 5792 5792 5792 5792 5792 5792
5770 5770 5770 5769 5770 5770 5770 5770 5770 5770 5771 5771 5772 5772 5772 5773 5773 5774 5774 5775 5776 5777 5778 5779 5780 5781 5781 5782 5783 5784 5784 5785 5785 5786 5786 5786 5786 5785 5785 5785 5785 5785 5785
5764 5764 5764 5764 5763 5763 5764 5764 5764 5764 5765 5765 5765 5766 5767 5767 5767 5768 5768 5769 5769 5771 5771 5772 5773 5774 5774 5775 5776 5776 5777 5777 5778 5778 5778 5778 5778 5778 5778 5778 5778 5778 5778
5758 5758 5758 5758 5758 5758 5758 5758 5758 5759 5759 5759 5760 5760 5761 5761 5761 5762 5762 5763 5763 5764 5764 5765 5765 5766 5767 5768 5768 5769 5769 5770 5770 5770 5770 5770 5770 5770 5771 5771 5771 5771 5771
5752 5752 5751 5752 5752 5752 5752 5752 5752 5752 5753 5753 5753 5754 5754 5755 5755 5755 5756 5756 5757 5757 5757 5757 5758 5758 5759 5759 5760 5761 5762 5762 5762 5763 5763 5763 5763 5763 5763 5763 5763 5763 5763
5746 5746 5745 5745 5745 5746 5746 5746 5746 5746 5746 5747 5747 5747 5747 5748 5749 5749 5749 5749 5750 5750 5750 5750 5750 5751 5751 5752 5752 5753 5754 5754 5754 5755 5755 5755 5755 5756 5756 5755 5755 5755 5755
5740 5739 5739 5739 5739 5739 5739 5739 5739 5740 5740 5740 5740 5741 5741 5741 5741 5742 5742 5742 5742 5743 5743 5743 5743 5743 5743 5744 5744 5745 5746 5746 5746 5746 5747 5747 5748 5748 5748 5748 5748 5748 5747
5733 5733 5733 5733 5733 5733 5733 5733 5733 5733 5733 5733 5734 5734 5734 5734 5734 5734 5734 5734 5734 5734 5735 5735 5735 5735 5735 5736 5737 5737 5738 5738 5738 5739 5739 5740 5740 5741 5741 5741 5740 5740 5740
5727 5726 5726 5726 5726 5726 5725 5725 5726 5726 5726 5726 5726 5726 5726 5726 5726 5726 5726 5726 5726 5726 5727 5727 5727 5727 5728 5729 5729 5730 5730 5730 5731 5731 5732 5732 5732 5733 5733 5733 5733 5733 5734
5720 5719 5719 5718 5718 5718 5718 5718 5718 5718 5718 5719 5718 5718 5718 5718 5718 5718 5718 5719 5719 5719 5719 5719 5720 5720 5721 5721 5722 5722 5723 5723 5723 5724 5724 5724 5725 5725 5725 5726 5726 5726 5727
5712 5711 5711 5711 5710 5710 5710 5710 5710 5711 5710 5710 5710 5710 5710 5710 5710 5710 5711 5711 5711 5711 5711 5711 5712 5712 5713 5714 5714 5715 5715 5716 5716 5716 5716 5717 5717 5718 5718 5718 5719 5719 5720
5704 5704 5703 5703 5703 5702 5702 5702 5702 5702 5702 5702 5702 5702 5702 5702 5702 5702 5702 5703 5702 5702 5703 5703 5703 5704 5704 5705 5706 5706 5707 5708 5708 5708 5709 5709 5709 5710 5710 5711 5711 5712 5712
5696 5696 5696 5695 5695 5694 5694 5694 5694 5694 5694 5693 5693 5693 5694 5694 5693 5693 5693 5694 5694 5694 5694 5694 5695 5695 5696 5696 5697 5698 5699 5699 5700 5700 5701 5701 5701 5702 5702 5703 5703 5704 5704
5689 5689 5688 5687 5687 5686 5686 5685 5685 5685 5685 5685 5685 5685 5685 5684 5684 5684 5684 5684 5685 5685 5685 5685 5685 5686 5687 5687 5688 5689 5690 5691 5691 5692 5692 5693 5693 5693 5694 5695 5695 5695 5696
5682 5681 5681 5680 5679 5678 5678 5677 5676 5676 5676 5676 5676 5676 5676 5676 5676 5676 5675 5675 5676 5676 5676 5676 5676 5677 5678 5678 5679 5680 5681 5682 5683 5683 5684 5684 5685 5685 5686 5686 5686 5687 5687
5675 5674 5673 5672 5671 5670 5670 5669 5668 5668 5668 5668 5667 5667 5667 5667 5667 5667 5666 5667 5667 5667 5667 5667 5667 5668 5669 5669 5670 5671 5672 5673 5674 5674 5675 5676 5676 5676 5677 5677 5678 5678 5679
5668 5667 5666 5665 5664 5663 5662 5661 5660 5660 5659 5659 5659 5659 5658 5658 5658 5658 5658 5658 5658 5658 5658 5658 5659 5659 5660 5660 5661 5662 5663 5663 5664 5665 5666 5666 5667 5667 5667 5668 5668 5668 5669
5662 5660 5659 5658 5657 5656 5655 5654 5653 5653 5652 5651 5651 5651 5651 5650 5650 5650 5649 5649 5649 5649 5649 5649 5650 5650 5651 5651 5652 5653 5653 5654 5655 5655 5656 5656 5656 5657 5657 5658 5658 5659 5660
5655 5654 5653 5652 5651 5650 5649 5648 5647 5646 5645 5644 5644 5643 5643 5642 5642 5641 5641 5640 5640 5640 5640 5640 5640 5641 5641 5641 5642 5642 5643 5644 5645 5645 5645 5646 5646 5647 5647 5648 5649 5650 5650
5649 5648 5647 5646 5644 5643 5642 5641 5640 5639 5638 5637 5636 5636 5635 5635 5634 5633 5632 5632 5632 5631 5631 5631 5631 5631 5631 5631 5632 5632 5633 5634 5634 5635 5635 5636 5636 5637 5637 5638 5639 5640 5641
5643 5642 5640 5639 5637 5636 5635 5634 5633 5632 5631 5630 5629 5628 5628 5627 5626 5625 5624 5624 5623 5623 5622 5621 5621 5621 5621 5621 5622 5623 5623 5624 5624 5625 5625 5626 5626 5627 5628 5629 5630 5631 5631